This is the latest recevied weather packets stored in our database for station/object HG6IQI-10. If no packets are shown the sender has not sent any weather packets the latest 10 day(s).
| Time | Temp. | Humidity | Pressure | Rain* | Wind** | Luminosity | Snow |
|---|---|---|---|---|---|---|---|
| 1787734058 | 20.56° C | 51% | 1018.9 hPa | - | - | - | - |
| 1787733157 | 21.11° C | 52% | 1018.9 hPa | - | - | - | - |
| 1787732257 | 20.56° C | 54% | 1018.8 hPa | - | - | - | - |
| 1787731357 | 20.56° C | 54% | 1018.5 hPa | - | - | - | - |
| 1787730457 | 20.56° C | 56% | 1018.4 hPa | - | - | - | - |
| 1787729557 | 20° C | 54% | 1018.1 hPa | - | - | - | - |
| 1787728657 | 20° C | 54% | 1017.9 hPa | - | - | - | - |
| 1787727756 | 20° C | 53% | 1017.7 hPa | - | - | - | - |
| 1787726856 | 20° C | 53% | 1017.6 hPa | - | - | - | - |
| 1787725956 | 19.44° C | 56% | 1017.5 hPa | - | - | - | - |
| 1787725056 | 19.44° C | 59% | 1017.5 hPa | - | - | - | - |
| 1787724156 | 18.33° C | 65% | 1017.4 hPa | - | - | - | - |
| 1787723256 | 17.78° C | 74% | 1017.4 hPa | - | - | - | - |
| 1787722355 | 16.67° C | 75% | 1017.4 hPa | - | - | - | - |
| 1787721455 | 16.67° C | 75% | 1017.3 hPa | - | - | - | - |
| 1787720555 | 16.11° C | 75% | 1017.3 hPa | - | - | - | - |
| 1787719655 | 16.11° C | 74% | 1017.1 hPa | - | - | - | - |
| 1787718755 | 16.11° C | 75% | 1017 hPa | - | - | - | - |
| 1787717855 | 16.11° C | 75% | 1017.1 hPa | - | - | - | - |
| 1787716954 | 16.11° C | 75% | 1016.8 hPa | - | - | - | - |
| 1787716054 | 16.11° C | 75% | 1016.7 hPa | - | - | - | - |
| 1787715154 | 15.56° C | 75% | 1016.5 hPa | - | - | - | - |
| 1787714258 | 15.56° C | 75% | 1016.7 hPa | - | - | - | - |
| 1787713358 | 16.11° C | 74% | 1016.5 hPa | - | - | - | - |
| 1787712457 | 16.11° C | 74% | 1016.5 hPa | - | - | - | - |
* Rain since midnight (hover to see other rain measurements)
** Current wind speed in m/s (hover to see current wind gust speed)